Kezdőlap
METAR-TAF:

METAR-TAF

Repülőterek :

Békéscsabai repülőtér

Békéscsaba, Magyarország

földrajzi szélesség: 46-41-00N, földrajzi hosszúság: 021-09-45E, magasság: 86 m

Jelenlegi meteorológiai megfigyelések

A jelentés 3 órával és 21 perccel ezelõtt készült, 17:45 UTC
Északkeleti szél 10 kt
Hőmérséklet 7°C
Páratartalom 49%
Légköri nyomás 1030 hPa
Látótávolság 10 km, vagy több
felhőtlen 1500 m magasságban, és nincs gomolyfelhõ

METAR: LHBC 161745Z 05010KT CAVOK 07/M03 Q1030

Idő: 22:06 (21:06 UTC)


TAF: hiányzik

Meteorológiai megfigyelések és előrejelzések több, mint 4000 repülőtéren (METAR és TAF jelentéseket).

A térképen piros és sárga pontok jelzik az elérhető meteorológiai állomásokat.

Mozgassa az egeret a pont fölött, hogy megjelenjen az állomás neve.

Azután kattintson az időjárási megfigyelések és előrejelzések megtekintéséhez.

A térkép megváltoztatása: kattintson a fekete keresztel jelölt zöld gombra ráközelítéshez, a vonallal jelölt zöld gombra távolításhoz, vagy a zöld nyilakra a szomszédos térképek eléréséhez.


METAR-TAF: